Regional Weather Roundup
Issued by NWS

Home | Current Version | Previous Version | Text Only | Print | Product List | Glossary Off
Versions: 1 2 3 4 5 6 7 8 9 10 11 12 13 14 15 16 17 18 19 20 21 22 23 24 25 26 27 28 29 30 31 32 33 34 35 36 37 38 39 40 41 42 43 44 45 46 47 48 49 50

000
ASUS43 KLSX 262307
RWRMO

WEATHER SUMMARY FOR MISSOURI
NATIONAL WEATHER SERVICE SPRINGFIELD MO
600 PM CDT WED JUL 26 2017

NOTE: "FAIR" INDICATES FEW OR NO CLOUDS BELOW 12,000 FEET WITH NO
       SIGNIFICANT WEATHER AND/OR OBSTRUCTIONS TO VISIBILITY.
       CURRENT SKY AND/OR WEATHER CONDITIONS ARE NOT AVAILABLE FOR
       CHILLICOTHE AND FARMINGTON.

MOZ001>031-035>038-043-044-053-054-270000-
...NORTHERN AND WESTERN MISSOURI...

CITY           SKY/WX    TMP DP  RH WIND       PRES   REMARKS
KANSAS CTY INT CLOUDY    78  76  93 SE6       29.96F
KANSAS C DTWN  LGT RAIN  81  78  91 S3        29.95F
LEE`S SUMMIT   CLOUDY    80  79  96 CALM      29.98F
ST JOSEPH      PTSUNNY   82  77  84 S5        29.96F HX  90
CHILLICOTHE      N/A     80  78  94 CALM      29.98F
KIRKSVILLE     CLOUDY    82  76  81 SW5       29.99S

$$
MOZ066>068-077>081-088>096-101>105-270000-
...SOUTHWEST MISSOURI...

CITY           SKY/WX    TMP DP  RH WIND       PRES   REMARKS
SPRINGFIELD    CLOUDY    93  71  48 SW8       30.00S HX 100
JOPLIN         PTSUNNY   97  72  44 SW14      29.98S HX 105
BRANSON        CLOUDY    91  70  49 SW7       30.04S HX  97

$$
MOZ032>034-039>042-045>050-055>058-069>072-270000-
...CENTRAL MISSOURI...

CITY           SKY/WX    TMP DP  RH WIND       PRES   REMARKS
COLUMBIA       NOT AVBL
JEFFERSON CITY CLOUDY    92  76  59 CALM      29.94F HX 104
ROLLA          CLOUDY    92  71  50 SW6       29.99F HX  98
SEDALIA        CLOUDY    88  79  74 S3        29.98F HX 103
WHITEMAN AFB   CLOUDY    86  81  86 CALM      29.95F HX 102
WARRENSBURG    PTSUNNY   84  73  70 CALM      29.96S HX  91
OSAGE BEACH    PTSUNNY   94  70  45 W7        29.97F HX 100

$$
MOZ051-052-059>065-270000-
...EAST CENTRAL MISSOURI...

CITY           SKY/WX    TMP DP  RH WIND       PRES   REMARKS
ST LOUIS INTL  CLOUDY    94  75  54 N6        29.96F HX 105
SPIRIT OF STL  PTSUNNY   95  74  50 SW6       29.93F HX 105
ST CHARLES     CLOUDY    90  78  68 N3        29.94F HX 104

$$
MOZ072>076-082>087-097>100-106>115-270000-
...SOUTH CENTRAL AND SOUTHEAST MISSOURI...

CITY           SKY/WX    TMP DP  RH WIND       PRES   REMARKS
CAPE GIRARDEAU PTSUNNY   87  75  67 SW7       29.97F HX  96
FARMINGTON     CLOUDY    94  75  54 S9        29.99S HX 105
POPLAR BLUFF   CLOUDY    91  77  63 SW9       29.97F HX 104
WEST PLAINS      N/A     90  69  50 S8        30.04F HX  94

$$



USA.gov is the U.S. government's official web portal to all federal, state and local government web resources and services.